Portage, MI (49081)

10:16 AM EDT on August 28, 2016 (GMT -0400)
Austin Lake | | Change Station
Active Advisory: Flood Warning Active Notice: Local Storm Report

Elev 869 ft 42.17 °N, 85.56 °W | Updated 3 seconds ago

Scattered Clouds
Scattered Clouds
73.8 °F
Feels Like 70 °F
N
0.0
Wind Variable Wind from WSW
Gusts 1.0 mph

Today
High -- | Low -- °F
--% Chance of Precip.
Yesterday
High -- | Low -- °F
Precip. -- in
Pressure 30.20 in
Visibility 10.0 miles
Clouds Scattered Clouds 800 ft
Scattered Clouds 1200 ft
Heat Index 70 °F
Dew Point 73 °F
Humidity 97%
Rainfall 0.00 in
Snow Depth Not available.
7:03 AM 8:21 PM
Waning Crescent, 15% visible
METAR KAZO 281353Z 00000KT 10SM SCT008 SCT012 24/21 A3021 RMK AO2 SLP225 T02390206
Pressure 30.20 in
Visibility 10.0 miles
Clouds Scattered Clouds 800 ft
Scattered Clouds 1200 ft
Heat Index 70 °F
Dew Point 73 °F
Humidity 97%
Rainfall 0.00 in
Snow Depth Not available.
7:03 AM 8:21 PM
Waning Crescent, 15% visible
METAR KAZO 281353Z 00000KT 10SM SCT008 SCT012 24/21 A3021 RMK AO2 SLP225 T02390206

10-Day Weather Forecast

Almanac

Astronomy

Aug. 28, 2016 Rise Set
Actual Time
Civil Twilight
Nautical Twilight
Astronomical Twilight
Moon
Length of Visible Light
Length of Day
Tomorrow will be .
, % of the Moon is Illuminated

Today's Extremes

State Highs State Lows

Community

WunderPhotos

Upload Photos

1,935,574 photos uploaded!

WunderBlog® & News

Nearby

Air Quality

  Air Quality AQ Index Pollutant
Not available.

Snow Depth

Station Depth Elevation

Earthquake Activity

City Distance Mag. Time & Date
Minimum magnitude displayed is 2.5.

Coastal Water Temperatures

Place Temperature

Stations

Nearby Weather Stations

Station Location Temp. Windchill Dew Point Humidity Wind Precip. Elev Updated Type
                   

Watches & Warnings

Flood Warning
Issued: 10:35 AM EDT Aug. 27, 2016 – National Weather Service

The Flood Warning continues for
the Portage River near Vicksburg.
* Until late Monday night.
* At 7:00 am Saturday the stage was 4.96 feet.
* Flood stage is 5.0 feet.
* Forecast, the river is expected to rise to near flood stage
tomorrow early afternoon.
* Impact, at 5.0 feet... expect overflows into wooded areas and
farmland adjacent to the river
* flood history, this crest compares to a previous crest of 5.0 feet
on Apr 20 2013.


Lat... Lon 4208 8547 4211 8544 4216 8544 4215 8548
      4211 8553 4208 8552


63